Seattle Boeing, WA
on Monday, February 4, 2013

Monday
Previous Day Next Day
Daily Summary
 ActualAverage (KSEA)Record (KSEA)
Temperature
Mean Temperature °F 43°F  
Max Temperature 52°F 49°F 63°F (1993)
Min Temperature 44°F 37°F 7°F (1989)
Degree Days
Heating Degree Days 17 22  
Month to date heating degree days 88  
Since 1 July heating degree days 2737  
Cooling Degree Days 0 0  
Month to date cooling degree days 0  
Year to date cooling degree days 0  
Moisture
Dew Point 41°F   
Average Humidity 76    
Maximum Humidity 87    
Minimum Humidity 61    
Precipitation
Precipitation 0.00 in 0.13 in 0.91 in (1965)
Month to date precipitation 0.53  
Year to date precipitation 6.10  
Snow
Snow 0.00 in in 1.70 in (1949)
Month to date snowfall  
Since 1 July snowfall  
Snow Depth in   
Wind
Wind Speed 6 mph   
Max Wind Speed 9 mph   
Max Gust Speed mph   
Visibility 10 miles   
Events     

Key: T is trace of precipitation, MM is missing value
Source: NWS Daily Summary
Time(PST)TemperatureDew PointHumidity Pressure Visibility Wind DirectionWind SpeedGust SpeedPrecipitationEvents Conditions
12:53 AM 46.0°F 42.1°F 86% 30.20 in 10.0 miles South 4.6 mph - N/A   Overcast
2:53 AM 46.4°F 41.0°F 81% 30.20 in 10.0 miles SSE 5.8 mph - N/A   Overcast
3:53 AM 44.6°F 41.0°F 87% 30.20 in 10.0 miles SE 5.8 mph - N/A   Overcast
4:21 AM 46.4°F 41.0°F 81% 30.19 in 10.0 miles SE 6.9 mph - N/A   Overcast
4:38 AM 44.6°F 41.0°F 87% 30.18 in 10.0 miles SE 9.2 mph - N/A   Overcast
4:53 AM 45.0°F 41.0°F 86% 30.18 in 10.0 miles SE 8.1 mph - N/A   Overcast
5:53 AM 45.0°F 41.0°F 86% 30.18 in 10.0 miles SE 5.8 mph - N/A   Overcast
6:53 AM 45.0°F 41.0°F 86% 30.16 in 10.0 miles SE 4.6 mph - N/A   Overcast
7:53 AM 46.0°F 41.0°F 83% 30.17 in 10.0 miles SE 5.8 mph - N/A   Overcast
8:53 AM 46.0°F 41.0°F 83% 30.17 in 10.0 miles SE 8.1 mph - N/A   Overcast
9:53 AM 46.9°F 42.1°F 83% 30.17 in 10.0 miles SSE 9.2 mph - N/A   Overcast
10:53 AM 48.9°F 41.0°F 74% 30.17 in 10.0 miles SE 6.9 mph - N/A   Overcast
11:53 AM 50.0°F 41.0°F 71% 30.14 in 10.0 miles SE 8.1 mph - N/A   Mostly Cloudy
12:53 PM 51.1°F 39.9°F 66% 30.11 in 10.0 miles SE 8.1 mph - N/A   Overcast
1:53 PM 52.0°F 39.0°F 61% 30.07 in 10.0 miles Calm Calm - N/A   Mostly Cloudy
2:53 PM 52.0°F 39.0°F 61% 30.04 in 10.0 miles South 3.5 mph - N/A   Overcast
3:53 PM 51.8°F 39.2°F 62% 30.01 in 10.0 miles ENE 3.5 mph - N/A   Clear
4:53 PM 51.1°F 39.0°F 63% 30.01 in 10.0 miles Calm Calm - N/A   Mostly Cloudy
5:53 PM 50.0°F 39.0°F 66% 30.01 in 10.0 miles Calm Calm - N/A   Overcast
6:53 PM 50.0°F 39.9°F 68% 29.98 in 10.0 miles ESE 5.8 mph - N/A   Overcast
7:53 PM 50.0°F 39.9°F 68% 29.92 in 10.0 miles ENE 4.6 mph - N/A   Overcast
8:53 PM 50.0°F 41.0°F 71% 29.91 in 10.0 miles WNW 4.6 mph - 0.00 in   Overcast
9:53 PM 48.9°F 41.0°F 74% 29.91 in 10.0 miles Calm Calm - 0.00 in   Overcast
10:53 PM 45.0°F 41.0°F 86% 29.91 in 10.0 miles SE 6.9 mph - N/A   Overcast
11:53 PM 46.0°F 41.0°F 83% 29.91 in 10.0 miles SSE 6.9 mph - N/A   Partly Cloudy
Moon Phase
Feb. 04 Feb. 10 Feb. 17 Feb. 25 Mar. 04
Sunrise:07:31 AM (PST) Moon Rise:02:18 AM (PST)2/4
Sunset:05:15 PM (PST) Moon Set:11:37 AM (PST)2/4

Copyright © 2014 The Weather Underground, Inc.